Time,TemperatureF,DewpointF,PressureIn,WindDirection,WindDirectionDegrees,WindSpeedMPH,WindSpeedGustMPH,Humidity,HourlyPrecipIn,Conditions,Clouds,dailyrainin,SoftwareType,DateUTC
2013-01-04 00:10:00,5.9,2.0,29.98,West,281,0.0,0.0,83,0.00,,,0.00,weatherlink.com 1.10,2013-01-04 05:10:00,
2013-01-04 00:24:00,6.3,3.0,29.97,West,281,0.0,0.0,84,0.00,,,0.00,weatherlink.com 1.10,2013-01-04 05:24:00,
2013-01-04 00:39:00,6.8,3.0,29.96,WNW,283,0.0,1.0,84,0.00,,,0.00,weatherlink.com 1.10,2013-01-04 05:39:00,
2013-01-04 00:54:00,7.7,4.0,29.96,NE,37,0.0,1.0,84,0.00,,,0.00,weatherlink.com 1.10,2013-01-04 05:54:00,
2013-01-04 01:09:00,8.1,4.0,29.96,NE,37,0.0,0.0,83,0.00,,,0.00,weatherlink.com 1.10,2013-01-04 06:09:00,
2013-01-04 01:24:00,8.5,5.0,29.96,NE,37,0.0,1.0,86,0.00,,,0.00,weatherlink.com 1.10,2013-01-04 06:24:00,
2013-01-04 01:39:00,8.7,5.0,29.95,NE,37,0.0,0.0,85,0.00,,,0.00,weatherlink.com 1.10,2013-01-04 06:39:00,
2013-01-04 01:54:00,8.8,5.0,29.96,NE,37,0.0,0.0,85,0.00,,,0.00,weatherlink.com 1.10,2013-01-04 06:54:00,
2013-01-04 02:09:00,7.7,4.0,29.96,NE,37,0.0,0.0,84,0.00,,,0.00,weatherlink.com 1.10,2013-01-04 07:09:00,
2013-01-04 02:24:00,7.3,4.0,29.96,NE,37,0.0,0.0,86,0.00,,,0.00,weatherlink.com 1.10,2013-01-04 07:24:00,
2013-01-04 02:39:00,6.8,4.0,29.95,NE,37,0.0,0.0,87,0.00,,,0.00,weatherlink.com 1.10,2013-01-04 07:39:00,
2013-01-04 02:54:00,6.3,3.0,29.95,NE,37,0.0,0.0,87,0.00,,,0.00,weatherlink.com 1.10,2013-01-04 07:54:00,
2013-01-04 03:09:00,5.5,2.0,29.95,WNW,301,0.0,0.0,86,0.00,,,0.00,weatherlink.com 1.10,2013-01-04 08:09:00,
2013-01-04 03:24:00,5.0,2.0,29.95,WNW,301,0.0,1.0,87,0.00,,,0.00,weatherlink.com 1.10,2013-01-04 08:24:00,
2013-01-04 03:39:00,4.9,2.0,29.94,WNW,300,0.0,0.0,87,0.00,,,0.00,weatherlink.com 1.10,2013-01-04 08:39:00,
2013-01-04 03:54:00,4.6,2.0,29.94,NW,319,0.0,0.0,88,0.00,,,0.00,weatherlink.com 1.10,2013-01-04 08:54:00,
2013-01-04 04:09:00,4.9,2.0,29.93,NNW,329,0.0,1.0,88,0.00,,,0.00,weatherlink.com 1.10,2013-01-04 09:09:00,
2013-01-04 04:24:00,5.2,2.0,29.93,NNW,328,0.0,0.0,88,0.00,,,0.00,weatherlink.com 1.10,2013-01-04 09:24:00,
2013-01-04 04:39:00,7.4,5.0,29.93,NNW,328,0.0,0.0,91,0.00,,,0.00,weatherlink.com 1.10,2013-01-04 09:39:00,
2013-01-04 04:55:00,9.3,7.0,29.93,NNW,328,0.0,1.0,91,0.00,,,0.00,weatherlink.com 1.10,2013-01-04 09:55:00,
2013-01-04 05:10:00,7.9,5.0,29.94,North,351,0.0,1.0,87,0.00,,,0.00,weatherlink.com 1.10,2013-01-04 10:10:00,
2013-01-04 05:25:00,7.9,5.0,29.94,North,352,0.0,0.0,88,0.00,,,0.00,weatherlink.com 1.10,2013-01-04 10:25:00,
2013-01-04 05:40:00,8.3,6.0,29.94,NNW,338,0.0,1.0,89,0.00,,,0.00,weatherlink.com 1.10,2013-01-04 10:40:00,
2013-01-04 05:55:00,11.8,10.0,29.94,West,279,0.0,1.0,92,0.00,,,0.00,weatherlink.com 1.10,2013-01-04 10:55:00,
2013-01-04 06:10:00,14.9,13.0,29.94,SW,224,0.0,1.0,93,0.00,,,0.00,weatherlink.com 1.10,2013-01-04 11:10:00,
2013-01-04 06:25:00,16.4,15.0,29.94,WNW,295,0.0,1.0,92,0.00,,,0.00,weatherlink.com 1.10,2013-01-04 11:25:00,
2013-01-04 06:40:00,18.1,16.0,29.95,East,80,0.0,1.0,91,0.00,,,0.00,weatherlink.com 1.10,2013-01-04 11:40:00,
2013-01-04 06:55:00,18.3,16.0,29.95,West,266,0.0,1.0,89,0.00,,,0.00,weatherlink.com 1.10,2013-01-04 11:55:00,
2013-01-04 07:10:00,18.7,16.0,29.95,SSE,149,0.0,4.0,90,0.00,,,0.00,weatherlink.com 1.10,2013-01-04 12:10:00,
2013-01-04 07:25:00,19.9,17.0,29.95,West,260,0.0,3.0,89,0.00,,,0.00,weatherlink.com 1.10,2013-01-04 12:25:00,
2013-01-04 07:40:00,20.6,18.0,29.94,SW,224,0.0,4.0,88,0.00,,,0.00,weatherlink.com 1.10,2013-01-04 12:40:00,
2013-01-04 07:55:00,21.5,19.0,29.94,SSE,167,0.0,3.0,88,0.00,,,0.00,weatherlink.com 1.10,2013-01-04 12:55:00,
2013-01-04 08:10:00,22.1,19.0,29.93,WSW,248,0.0,2.0,86,0.00,,,0.00,weatherlink.com 1.10,2013-01-04 13:10:00,
2013-01-04 08:25:00,22.8,19.0,29.93,WSW,242,1.0,4.0,86,0.00,,,0.00,weatherlink.com 1.10,2013-01-04 13:25:00,
2013-01-04 08:40:00,23.4,20.0,29.93,West,280,0.0,4.0,85,0.00,,,0.00,weatherlink.com 1.10,2013-01-04 13:40:00,
2013-01-04 08:55:00,24.0,20.0,29.92,WSW,255,0.0,2.0,84,0.00,,,0.00,weatherlink.com 1.10,2013-01-04 13:55:00,
2013-01-04 09:10:00,24.5,20.0,29.91,WSW,252,0.0,2.0,84,0.00,,,0.00,weatherlink.com 1.10,2013-01-04 14:10:00,
2013-01-04 09:25:00,25.2,21.0,29.92,SW,226,0.0,1.0,83,0.00,,,0.00,weatherlink.com 1.10,2013-01-04 14:25:00,
2013-01-04 09:40:00,26.1,21.0,29.91,SSW,211,2.0,8.0,81,0.00,,,0.00,weatherlink.com 1.10,2013-01-04 14:40:00,
2013-01-04 09:55:00,27.1,21.0,29.91,SW,226,0.0,9.0,79,0.00,,,0.00,weatherlink.com 1.10,2013-01-04 14:55:00,
2013-01-04 10:11:00,27.8,22.0,29.91,SW,226,0.0,7.0,78,0.00,,,0.00,weatherlink.com 1.10,2013-01-04 15:11:00,
2013-01-04 10:26:00,28.1,21.0,29.90,WSW,245,2.0,8.0,76,0.00,,,0.00,weatherlink.com 1.10,2013-01-04 15:26:00,
2013-01-04 10:41:00,28.7,22.0,29.89,South,174,1.0,7.0,75,0.00,,,0.00,weatherlink.com 1.10,2013-01-04 15:41:00,
2013-01-04 10:56:00,29.8,22.0,29.88,WNW,293,3.0,5.0,73,0.00,,,0.00,weatherlink.com 1.10,2013-01-04 15:56:00,
2013-01-04 11:11:00,31.3,22.0,29.87,ESE,120,1.0,2.0,68,0.00,,,0.00,weatherlink.com 1.10,2013-01-04 16:11:00,
2013-01-04 11:26:00,31.4,21.0,29.86,WSW,256,2.0,10.0,66,0.00,,,0.00,weatherlink.com 1.10,2013-01-04 16:26:00,
2013-01-04 11:41:00,31.6,22.0,29.84,WNW,290,0.0,7.0,67,0.00,,,0.00,weatherlink.com 1.10,2013-01-04 16:41:00,
2013-01-04 11:56:00,32.0,21.0,29.83,East,88,2.0,4.0,64,0.00,,,0.00,weatherlink.com 1.10,2013-01-04 16:56:00,
2013-01-04 12:11:00,32.6,22.0,29.82,SW,229,0.0,4.0,64,0.00,,,0.00,weatherlink.com 1.10,2013-01-04 17:11:00,
2013-01-04 12:26:00,32.9,21.0,29.81,West,273,0.0,6.0,63,0.00,,,0.00,weatherlink.com 1.10,2013-01-04 17:26:00,
2013-01-04 12:41:00,33.7,22.0,29.80,West,262,1.0,6.0,63,0.00,,,0.00,weatherlink.com 1.10,2013-01-04 17:41:00,
2013-01-04 12:56:00,34.3,21.0,29.80,SSE,156,2.0,12.0,59,0.00,,,0.00,weatherlink.com 1.10,2013-01-04 17:56:00,
2013-01-04 13:11:00,35.3,23.0,29.80,NNE,14,3.0,8.0,60,0.00,,,0.00,weatherlink.com 1.10,2013-01-04 18:11:00,
2013-01-04 13:26:00,36.0,22.0,29.80,NNW,338,2.0,7.0,58,0.00,,,0.00,weatherlink.com 1.10,2013-01-04 18:26:00,
2013-01-04 13:41:00,36.6,22.0,29.79,SSE,166,5.0,10.0,57,0.00,,,0.00,weatherlink.com 1.10,2013-01-04 18:41:00,
2013-01-04 13:56:00,36.7,23.0,29.79,SSE,148,3.0,6.0,57,0.00,,,0.00,weatherlink.com 1.10,2013-01-04 18:56:00,
2013-01-04 14:12:00,36.4,22.0,29.80,NE,43,1.0,7.0,57,0.00,,,0.00,weatherlink.com 1.10,2013-01-04 19:12:00,
2013-01-04 14:26:00,36.6,22.0,29.80,WNW,294,2.0,11.0,56,0.00,,,0.00,weatherlink.com 1.10,2013-01-04 19:26:00,
2013-01-04 14:41:00,37.0,23.0,29.80,North,8,1.0,3.0,57,0.00,,,0.00,weatherlink.com 1.10,2013-01-04 19:41:00,
2013-01-04 14:56:00,36.7,23.0,29.81,WSW,258,2.0,4.0,57,0.00,,,0.00,weatherlink.com 1.10,2013-01-04 19:56:00,
2013-01-04 15:11:00,35.9,23.0,29.81,SSE,166,1.0,5.0,59,0.00,,,0.00,weatherlink.com 1.10,2013-01-04 20:11:00,
2013-01-04 15:26:00,35.2,22.0,29.81,NNE,19,3.0,5.0,60,0.00,,,0.00,weatherlink.com 1.10,2013-01-04 20:26:00,
2013-01-04 15:56:00,34.4,22.0,29.81,NNW,327,0.0,8.0,61,0.00,,,0.00,weatherlink.com 1.10,2013-01-04 20:56:00,
2013-01-04 16:11:00,33.9,22.0,29.81,ENE,75,2.0,7.0,62,0.00,,,0.00,weatherlink.com 1.10,2013-01-04 21:11:00,
2013-01-04 16:26:00,33.5,22.0,29.80,SW,218,0.0,3.0,64,0.00,,,0.00,weatherlink.com 1.10,2013-01-04 21:26:00,
2013-01-04 16:42:00,33.2,23.0,29.81,WSW,245,0.0,6.0,65,0.00,,,0.00,weatherlink.com 1.10,2013-01-04 21:42:00,
2013-01-04 16:57:00,33.0,22.0,29.80,WSW,253,1.0,3.0,65,0.00,,,0.00,weatherlink.com 1.10,2013-01-04 21:57:00,
2013-01-04 17:12:00,32.9,22.0,29.80,West,259,0.0,3.0,65,0.00,,,0.00,weatherlink.com 1.10,2013-01-04 22:12:00,
2013-01-04 17:27:00,33.1,22.0,29.80,North,1,1.0,5.0,64,0.00,,,0.00,weatherlink.com 1.10,2013-01-04 22:27:00,
2013-01-04 17:42:00,32.9,22.0,29.80,North,352,1.0,5.0,65,0.00,,,0.00,weatherlink.com 1.10,2013-01-04 22:42:00,
2013-01-04 17:57:00,32.5,22.0,29.80,WSW,239,0.0,6.0,65,0.00,,,0.00,weatherlink.com 1.10,2013-01-04 22:57:00,
2013-01-04 18:27:00,32.4,22.0,29.81,WNW,285,0.0,7.0,66,0.00,,,0.00,weatherlink.com 1.10,2013-01-04 23:27:00,
2013-01-04 18:42:00,32.2,22.0,29.80,WSW,253,0.0,3.0,67,0.00,,,0.00,weatherlink.com 1.10,2013-01-04 23:42:00,
2013-01-04 18:57:00,32.0,22.0,29.80,WSW,245,1.0,9.0,67,0.00,,,0.00,weatherlink.com 1.10,2013-01-04 23:57:00,
2013-01-04 19:12:00,32.1,22.0,29.80,SSE,166,6.0,10.0,66,0.00,,,0.00,weatherlink.com 1.10,2013-01-05 00:12:00,
2013-01-04 19:27:00,31.8,22.0,29.81,NNW,336,0.0,5.0,67,0.00,,,0.00,weatherlink.com 1.10,2013-01-05 00:27:00,
2013-01-04 19:42:00,31.3,22.0,29.81,SSE,148,1.0,1.0,68,0.00,,,0.00,weatherlink.com 1.10,2013-01-05 00:42:00,
2013-01-04 19:57:00,31.6,22.0,29.81,SSE,158,0.0,3.0,68,0.00,,,0.00,weatherlink.com 1.10,2013-01-05 00:57:00,
2013-01-04 20:27:00,31.9,22.0,29.80,WNW,299,0.0,5.0,67,0.00,,,0.00,weatherlink.com 1.10,2013-01-05 01:27:00,
2013-01-04 20:42:00,32.6,22.0,29.80,WNW,301,1.0,10.0,65,0.00,,,0.00,weatherlink.com 1.10,2013-01-05 01:42:00,
2013-01-04 20:57:00,32.4,22.0,29.80,NNE,32,1.0,5.0,66,0.00,,,0.00,weatherlink.com 1.10,2013-01-05 01:57:00,
2013-01-04 21:12:00,32.6,22.0,29.80,WNW,287,2.0,7.0,66,0.00,,,0.00,weatherlink.com 1.10,2013-01-05 02:12:00,
2013-01-04 21:27:00,32.9,23.0,29.81,West,281,1.0,6.0,67,0.00,,,0.00,weatherlink.com 1.10,2013-01-05 02:27:00,
2013-01-04 21:42:00,33.1,23.0,29.81,SW,222,0.0,6.0,66,0.00,,,0.00,weatherlink.com 1.10,2013-01-05 02:42:00,
2013-01-04 21:57:00,32.9,23.0,29.82,NNW,335,0.0,4.0,67,0.00,,,0.00,weatherlink.com 1.10,2013-01-05 02:57:00,
2013-01-04 22:12:00,32.5,22.0,29.82,East,83,1.0,6.0,66,0.00,,,0.00,weatherlink.com 1.10,2013-01-05 03:12:00,
2013-01-04 22:27:00,32.4,23.0,29.82,ENE,75,2.0,3.0,67,0.00,,,0.00,weatherlink.com 1.10,2013-01-05 03:27:00,
2013-01-04 22:42:00,32.0,22.0,29.81,SSE,160,1.0,9.0,67,0.00,,,0.00,weatherlink.com 1.10,2013-01-05 03:42:00,
2013-01-04 22:57:00,31.7,22.0,29.81,East,84,1.0,4.0,67,0.00,,,0.00,weatherlink.com 1.10,2013-01-05 03:57:00,
2013-01-04 23:12:00,31.5,22.0,29.81,NW,311,1.0,9.0,68,0.00,,,0.00,weatherlink.com 1.10,2013-01-05 04:12:00,
2013-01-04 23:27:00,31.5,22.0,29.81,NNE,18,4.0,4.0,69,0.00,,,0.00,weatherlink.com 1.10,2013-01-05 04:27:00,
2013-01-04 23:42:00,31.4,22.0,29.81,WSW,248,4.0,6.0,69,0.00,,,0.00,weatherlink.com 1.10,2013-01-05 04:42:00,
2013-01-04 23:57:00,31.7,22.0,29.81,NW,304,3.0,5.0,68,0.00,,,0.00,weatherlink.com 1.10,2013-01-05 04:57:00,